sat.trackr.live / text

‹ back to catalog

STARLINK-1805

NORAD 46705 · 2020-073AM

PAYLOAD ACTIVE UNKNOWN

§ Identity

Operator
Country
US
Launch date
2020-10-18
Launch site
AFETR
Launch vehicle
Mass (kg)
RCS (m²)

Purposes: comms

External: N2YO · Heavens-Above · Gunter

§ Orbital elements

Epoch: 2026-09-09T16:03:22.775904Z

Period
89.34 min
Inclination
53.0297°
Eccentricity
0.0003014
Mean motion
16.11747037 rev/d
Perigee alt
240.1 km
Apogee alt
244.1 km
Semi-major
6,620.2 km
B*
8.4368e-4
RAAN
50.0326°
Arg perigee
316.2934°
Mean anomaly
43.7861°
Rev number
32,605

§ Raw data

STARLINK-18051 46705U 20073AM  26252.66901361  .00910812  49971-3  84368-3 0  99992 46705  53.0297  50.0326 0003014 316.2934  43.7861 16.11747037326054

JSON: /api/v1/satellites/46705 · /tle

For live sub-satellite position, see the globe view (requires WebGL).

§ Visibility from observer

Set your observer location to see the next 7 days of passes ≥ 10°. The values pass through the URL so the page stays shareable.

No JS? Fill the form by hand. The geolocation button needs JavaScript.